{"data":{"norad_id":43790,"intl_designator":"2018-099AJ","name":"EAGLET-I","alt_names":[],"object_type":"PAYLOAD","status":"ACTIVE","operator":null,"country":"IT","launch_date":"2018-12-03","launch_site_code":"AFWTR","launch_vehicle":null,"mission":null,"orbit_class":"UNKNOWN","rcs_meters":null,"size_class":null,"mass_kg":null,"dimensions":null,"purposes":[],"wikipedia_slug":null,"has_3d_model":false,"image_url":null,"decayed_at":null,"tle_current":{"epoch":"2026-09-19T22:36:28.946016Z","epoch_age_seconds":106671,"freshness":"FRESH","line1":"1 43790U 18099AJ  26262.94200169  .00002623  00000+0  14977-3 0  9992","line2":"2 43790  97.4138 310.0893 0011528  26.3027 333.8788 15.13535269426662","mean_motion":15.13535269,"eccentricity":0.0011528,"inclination_deg":97.4138,"raan_deg":310.0893,"arg_perigee_deg":26.3027,"mean_anomaly_deg":333.8788,"bstar":0.00014977,"rev_number":42666,"period_min":95.141489563796,"perigee_km":517.47051299664,"apogee_km":533.3873746367,"semimajor_km":6903.5659438167,"source":"CELESTRAK","updated_at":"2026-09-20T09:00:14.405788Z"}}}